Flag Weather past 2 weeks in Amarillo, Texas, U.S.A.

Now
52 °F

Clear.


Feels Like: 46 °F
Forecast: 45 / 77 °F
Wind: 18 mph from Southwest

Location: Amarillo International Airport

Current Time: Nov 29, 2014 at 12:46:05 AM

Latest Report: Nov 28, 2014 at 11:53 PM


Visibility: 10 mi

Pressure: 29.76 "Hg

Humidity: 32%

Dew point: 23 °F

Location of AmarilloLocation

Historic Weather in Amarillo — Graph

°F

Amarillo temperature yesterday

Maximum temperature yesterday: 83 °F (at 2:53 PM)
Minimum temperature yesterday: 38 °F (at 6:53 AM)
Average temperature yesterday: 58 °F

Past Weeks' High & Low Weather Summary

 TemperatureHumidityPressure
High83 °F (Nov 28, 2:53 PM)93% (Nov 21, 2:53 AM)30.47 "Hg (Nov 21, 2:53 AM)
Low10 °F (Nov 17, 7:53 AM)5% (Nov 28, 2:53 PM)29.36 "Hg (Nov 23, 2:53 AM)
Average39 °F57%30.08 "Hg
* Reported Nov 13 11:53 PM — Nov 28 11:53 PM, Amarillo, Weather by CustomWeather, © 2014

Note: Actual official high and low records may vary slightly from our data, if they occured in-between our weather recording intervals... More about our weather records

Advertising

Amarillo weather history for previous 24 hours

 ConditionsComfort  
Time TempWeatherWind HumidityBarometerVisibility
11:53 PM
Nov 28
52 °FClear.18 mph32%29.76 "Hg10 mi
10:53 PM55 °FClear.16 mph27%29.78 "Hg10 mi
9:53 PM61 °FClear.21 mph17%29.79 "Hg10 mi
8:53 PM61 °FClear.20 mph17%29.81 "Hg10 mi
7:53 PM62 °FClear.18 mph17%29.82 "Hg10 mi
6:53 PM67 °FClear.21 mph13%29.82 "Hg10 mi
5:53 PM67 °FClear.15 mph15%29.82 "Hg10 mi
4:53 PM77 °FSunny.16 mph8%29.80 "Hg10 mi
3:53 PM83 °FSunny.17 mph5%29.78 "Hg10 mi
2:53 PM83 °FSunny.22 mph5%29.79 "Hg10 mi
1:53 PM81 °FSunny.20 mph7%29.82 "Hg10 mi
12:53 PM78 °FSunny.17 mph9%29.85 "Hg10 mi
11:53 AM71 °FSunny.12 mph17%29.92 "Hg10 mi
10:53 AM62 °FSunny.7 mph25%29.98 "Hg10 mi
9:53 AM52 °FSunny.6 mph40%30.01 "Hg10 mi
8:53 AM43 °FSunny.10 mph56%30.04 "Hg10 mi
7:53 AM39 °FSunny.9 mph62%30.04 "Hg10 mi
6:53 AM38 °FClear.10 mph65%30.04 "Hg10 mi
5:53 AM39 °FClear.12 mph65%30.03 "Hg10 mi
4:53 AM40 °FClear.13 mph65%30.04 "Hg10 mi
3:53 AM42 °FClear.13 mph60%30.05 "Hg10 mi
2:53 AM44 °FClear.14 mph55%30.07 "Hg10 mi
1:53 AM45 °FClear.9 mph53%30.08 "Hg10 mi
12:53 AM45 °FClear.15 mph53%30.09 "Hg10 mi
Weather by CustomWeather, © 2014

See weather overviewHow to use our weather pages